sat.trackr.live / text

‹ back to catalog

ONEWEB-0675

NORAD 55834 · 2023-029AQ

PAYLOAD ACTIVE UNKNOWN

§ Identity

Operator
Country
UK
Launch date
2023-03-09
Launch site
AFETR
Launch vehicle
Mass (kg)
RCS (m²)

Purposes: comms

External: N2YO · Heavens-Above · Gunter

§ Orbital elements

Epoch: 2026-09-20T01:17:50.773632Z

Period
109.11 min
Inclination
87.9106°
Eccentricity
0.0001665
Mean motion
13.19725785 rev/d
Perigee alt
1,184.5 km
Apogee alt
1,187.0 km
Semi-major
7,563.9 km
B*
-1.0514e-5
RAAN
286.0740°
Arg perigee
96.3746°
Mean anomaly
263.7577°
Rev number
17,143

§ Raw data

ONEWEB-06751 55834U 23029AQ  26263.05405988  .00000009  00000+0 -10514-4 0  99932 55834  87.9106 286.0740 0001665  96.3746 263.7577 13.19725785171439

JSON: /api/v1/satellites/55834 · /tle

For live sub-satellite position, see the globe view (requires WebGL).

§ Visibility from observer

Set your observer location to see the next 7 days of passes ≥ 10°. The values pass through the URL so the page stays shareable.

No JS? Fill the form by hand. The geolocation button needs JavaScript.